This is the latest recevied weather packets stored in our database for station/object KD8OUK. If no packets are shown the sender has not sent any weather packets the latest 10 day(s).
| Time | Temp. | Humidity | Pressure | Rain* | Wind** | Luminosity | Snow |
|---|---|---|---|---|---|---|---|
| 1778078116 | 9.44° C | 83% | 1012.6 hPa | 0 mm | - | - | - |
| 1778077832 | 9.44° C | 85% | 1012.6 hPa | 0 mm | - | - | - |
| 1778077525 | 8.89° C | 87% | 1012.6 hPa | 0 mm | - | - | - |
| 1778077216 | 9.44° C | 86% | 1012.6 hPa | 0 mm | - | - | - |
| 1778076927 | 9.44° C | 84% | 1012.4 hPa | 0 mm | - | - | - |
| 1778076619 | 9.44° C | 86% | 1012.1 hPa | 0 mm | - | - | - |
| 1778076329 | 8.89° C | 85% | 1012.1 hPa | 0 mm | - | - | - |
| 1778076021 | 8.89° C | 88% | 1012.1 hPa | 0 mm | - | - | - |
| 1778075731 | 8.89° C | 87% | 1012.1 hPa | 0 mm | - | - | - |
| 1778075424 | 8.33° C | 87% | 1012.1 hPa | 0 mm | - | - | - |
| 1778075115 | 8.33° C | 89% | 1012.1 hPa | 0 mm | - | - | - |
| 1778074825 | 7.78° C | 92% | 1012.1 hPa | 0 mm | - | - | - |
| 1778074517 | 7.78° C | 94% | 1012.1 hPa | 0 mm | - | - | - |
| 1778074228 | 7.78° C | 93% | 1012.1 hPa | 0 mm | - | - | - |
| 1778073920 | 7.78° C | 94% | 1012.2 hPa | 0 mm | - | - | - |
| 1778073630 | 7.78° C | 95% | 1012.3 hPa | 0 mm | - | - | - |
| 1778073322 | 7.22° C | 97% | 1012.2 hPa | 0 mm | - | - | - |
| 1778073032 | 7.22° C | 99% | 1012.1 hPa | 0 mm | - | - | - |
| 1778072724 | 7.22° C | 99% | 1012.1 hPa | 0 mm | - | - | - |
| 1778072417 | 7.22° C | 99% | 1012 hPa | 0 mm | - | - | - |
| 1778072126 | 6.67° C | 99% | 1011.9 hPa | 0 mm | - | - | - |
| 1778071819 | 6.67° C | 99% | 1011.8 hPa | 0 mm | - | - | - |
| 1778071529 | 6.67° C | 99% | 1011.6 hPa | 0 mm | - | - | - |
| 1778071217 | 6.67° C | 99% | 1011.6 hPa | 0 mm | - | - | - |
| 1778070926 | 6.67° C | 99% | 1011.3 hPa | 0 mm | - | - | - |
* Rain latest hour (hover to see other rain measurements)
** Current wind speed in m/s (hover to see current wind gust speed)